When you browse on this site, cookies collect data to enhance your experience and personalize the content and advertising you see.
Visit our Privacy Policy to learn more. By continuing to use the site, you agree to this use of cookies and data.
  • In Germany
  • List of Countries
  • For 7 days
  • Water Temperature
  • Satellite Maps
  • Weather Map
  • Weather Widgets
  • user-avatar
    Login

    Hourly Weather Nizhniy Mangirtuy

    Today, 18 November, Sunday

    Time Temperature Precipitation Wind Pressure Humidity
    00:00 -14°C° 0 mm 1 mps 710 mmHg 81%
    01:00 -15°C° 0 mm 1 mps 709 mmHg 81%
    02:00 -15°C° 0 mm 1 mps 709 mmHg 82%
    03:00 -15°C° 0 mm 1 mps 709 mmHg 82%
    04:00 -15°C° 0 mm 1 mps 709 mmHg 83%
    05:00 -15°C° 0 mm 1 mps 709 mmHg 84%
    06:00 -15°C° 0 mm 1 mps 708 mmHg 84%
    07:00 -15°C° 0 mm 0 mps 707 mmHg 84%
    08:00 -14°C° 0 mm 0 mps 707 mmHg 78%
    09:00 -13°C° 0 mm 0 mps 707 mmHg 72%
    10:00 -12°C° 0 mm 0 mps 706 mmHg 66%
    11:00 -12°C° 0 mm 1 mps 706 mmHg 64%
    12:00 -11°C° 0 mm 1 mps 706 mmHg 61%
    13:00 -13°C° 0 mm 2 mps 706 mmHg 59%
    14:00 -11°C° 0 mm 1 mps 706 mmHg 64%
    15:00 -12°C° 0 mm 1 mps 706 mmHg 69%
    16:00 -13°C° 0 mm 1 mps 706 mmHg 73%
    17:00 -13°C° 0 mm 1 mps 706 mmHg 76%
    18:00 -14°C° 0 mm 1 mps 706 mmHg 78%
    19:00 -14°C° 0 mm 0 mps 706 mmHg 81%
    20:00 -15°C° 0 mm 0 mps 706 mmHg 82%
    21:00 -15°C° 0 mm 0 mps 706 mmHg 82%
    22:00 -15°C° 0 mm 0 mps 706 mmHg 82%
    23:00 -15°C° 0 mm 0 mps 706 mmHg 82%

    Tomorrow, 19 November, Monday

    Time Temperature Precipitation Wind Pressure Humidity
    00:00 -15°C° 0 mm 0 mps 706 mmHg 82%
    01:00 -15°C° 0 mm 0 mps 706 mmHg 82%
    02:00 -16°C° 0 mm 0 mps 707 mmHg 82%
    03:00 -16°C° 0 mm 0 mps 707 mmHg 83%
    04:00 -16°C° 0 mm 1 mps 707 mmHg 83%
    05:00 -16°C° 0 mm 1 mps 707 mmHg 84%
    06:00 -16°C° 0 mm 1 mps 707 mmHg 84%
    07:00 -16°C° 0 mm 1 mps 707 mmHg 85%
    08:00 -15°C° 0 mm 1 mps 707 mmHg 78%
    09:00 -14°C° 0 mm 1 mps 708 mmHg 71%
    10:00 -12°C° 0 mm 1 mps 708 mmHg 64%
    11:00 -12°C° 0 mm 1 mps 708 mmHg 61%
    12:00 -13°C° 0 mm 2 mps 708 mmHg 58%
    13:00 -12°C° 0 mm 2 mps 708 mmHg 55%
    14:00 -13°C° 0 mm 2 mps 708 mmHg 60%
    15:00 -12°C° 0 mm 1 mps 708 mmHg 64%
    16:00 -13°C° 0 mm 1 mps 708 mmHg 69%
    17:00 -13°C° 0 mm 1 mps 708 mmHg 72%
    18:00 -14°C° 0 mm 1 mps 709 mmHg 74%
    19:00 -14°C° 0 mm 1 mps 709 mmHg 77%
    20:00 -14°C° 0 mm 1 mps 709 mmHg 77%
    21:00 -15°C° 0 mm 1 mps 709 mmHg 78%
    22:00 -15°C° 0 mm 1 mps 709 mmHg 79%
    23:00 -15°C° 0 mm 1 mps 709 mmHg 80%

    Day after tomorrow, 20 November, Tuesday

    Time Temperature Precipitation Wind Pressure Humidity
    00:00 -15°C° 0 mm 1 mps 709 mmHg 80%
    01:00 -17°C° 0 mm 2 mps 710 mmHg 81%
    02:00 -17°C° 0 mm 2 mps 709 mmHg 81%
    03:00 -17°C° 0 mm 2 mps 709 mmHg 81%
    04:00 -18°C° 0 mm 2 mps 709 mmHg 82%
    05:00 -17°C° 0 mm 2 mps 709 mmHg 81%
    06:00 -17°C° 0 mm 2 mps 709 mmHg 80%
    07:00 -17°C° 0 mm 2 mps 709 mmHg 79%
    08:00 -16°C° 0 mm 2 mps 709 mmHg 73%
    09:00 -16°C° 0 mm 3 mps 709 mmHg 66%
    10:00 -14°C° 0 mm 3 mps 709 mmHg 60%
    11:00 -13°C° 0 mm 3 mps 709 mmHg 57%
    12:00 -12°C° 0 mm 3 mps 708 mmHg 54%
    13:00 -10°C° 0 mm 3 mps 708 mmHg 51%
    14:00 -12°C° 0 mm 3 mps 707 mmHg 57%
    15:00 -12°C° 0 mm 2 mps 707 mmHg 62%
    16:00 -13°C° 0 mm 2 mps 707 mmHg 67%
    17:00 -13°C° 0 mm 2 mps 707 mmHg 69%
    18:00 -14°C° 0 mm 2 mps 707 mmHg 70%
    19:00 -14°C° 0 mm 2 mps 707 mmHg 72%
    20:00 -14°C° 0 mm 2 mps 707 mmHg 72%
    21:00 -12°C° 0 mm 1 mps 707 mmHg 72%
    22:00 -12°C° 0 mm 1 mps 707 mmHg 73%
    23:00 -13°C° 0 mm 1 mps 707 mmHg 74%

    21 November, Wednesday

    Time Temperature Precipitation Wind Pressure Humidity
    00:00 -13°C° 0 mm 1 mps 706 mmHg 74%
    01:00 -13°C° 0 mm 1 mps 706 mmHg 75%
    02:00 -13°C° 0 mm 1 mps 706 mmHg 76%
    03:00 -13°C° 0 mm 1 mps 706 mmHg 77%
    04:00 -16°C° 0 mm 2 mps 706 mmHg 77%
    05:00 -14°C° 0 mm 1 mps 707 mmHg 78%
    06:00 -14°C° 0 mm 1 mps 707 mmHg 79%
    07:00 -14°C° 0 mm 1 mps 707 mmHg 80%
    08:00 -13°C° 0 mm 1 mps 707 mmHg 74%
    09:00 -12°C° 0 mm 1 mps 708 mmHg 69%
    10:00 -12°C° 0 mm 2 mps 708 mmHg 63%
    11:00 -12°C° 0 mm 2 mps 708 mmHg 60%
    12:00 -10°C° 0 mm 2 mps 708 mmHg 57%
    13:00 -9°C° 0 mm 2 mps 707 mmHg 54%
    14:00 -10°C° 0 mm 2 mps 707 mmHg 59%
    15:00 -10°C° 0 mm 1 mps 707 mmHg 64%
    16:00 -11°C° 0 mm 1 mps 707 mmHg 69%
    17:00 -11°C° 0 mm 1 mps 707 mmHg 70%
    18:00 -12°C° 0 mm 1 mps 707 mmHg 72%
    19:00 -12°C° 0 mm 1 mps 708 mmHg 73%
    20:00 -12°C° 0 mm 1 mps 708 mmHg 74%
    21:00 -12°C° 0 mm 1 mps 708 mmHg 74%
    22:00 -13°C° 0 mm 1 mps 708 mmHg 75%
    23:00 -13°C° 0 mm 1 mps 707 mmHg 75%

    22 November, Thursday

    Time Temperature Precipitation Wind Pressure Humidity
    00:00 -13°C° 0 mm 1 mps 707 mmHg 75%
    01:00 -13°C° 0 mm 1 mps 707 mmHg 76%
    02:00 -13°C° 0 mm 1 mps 707 mmHg 76%
    03:00 -13°C° 0 mm 1 mps 707 mmHg 75%
    04:00 -13°C° 0 mm 1 mps 707 mmHg 75%
    05:00 -14°C° 0 mm 1 mps 707 mmHg 75%
    06:00 -14°C° 0 mm 1 mps 707 mmHg 75%
    07:00 -14°C° 0 mm 1 mps 707 mmHg 74%
    08:00 -12°C° 0 mm 1 mps 707 mmHg 68%
    09:00 -11°C° 0 mm 1 mps 707 mmHg 61%
    10:00 -9°C° 0 mm 1 mps 707 mmHg 55%
    11:00 -8°C° 0 mm 1 mps 706 mmHg 52%
    12:00 -7°C° 0 mm 1 mps 706 mmHg 49%
    13:00 -6°C° 0 mm 1 mps 706 mmHg 46%
    14:00 -8°C° 0 mm 0 mps 705 mmHg 52%
    15:00 -9°C° 0 mm 0 mps 705 mmHg 57%
    16:00 -10°C° 0 mm 0 mps 705 mmHg 63%
    17:00 -11°C° 0 mm 0 mps 706 mmHg 65%
    18:00 -11°C° 0 mm 0 mps 706 mmHg 67%
    19:00 -11°C° 0 mm 0 mps 706 mmHg 69%
    20:00 -12°C° 0 mm 0 mps 706 mmHg 69%
    21:00 -12°C° 0 mm 1 mps 706 mmHg 70%
    22:00 -12°C° 0 mm 1 mps 706 mmHg 71%
    23:00 -12°C° 0 mm 1 mps 706 mmHg 72%

    23 November, Friday

    Time Temperature Precipitation Wind Pressure Humidity
    00:00 -12°C° 0 mm 1 mps 706 mmHg 73%
    01:00 -12°C° 0 mm 1 mps 706 mmHg 73%
    02:00 -13°C° 0 mm 1 mps 706 mmHg 74%
    03:00 -13°C° 0 mm 1 mps 706 mmHg 74%
    04:00 -13°C° 0 mm 1 mps 706 mmHg 74%
    05:00 -13°C° 0 mm 1 mps 706 mmHg 74%
    06:00 -13°C° 0 mm 1 mps 706 mmHg 74%
    07:00 -13°C° 0 mm 1 mps 706 mmHg 74%
    08:00 -11°C° 0 mm 1 mps 706 mmHg 68%
    09:00 -10°C° 0 mm 1 mps 706 mmHg 62%
    10:00 -8°C° 0 mm 1 mps 706 mmHg 56%
    11:00 -7°C° 0 mm 1 mps 705 mmHg 52%
    12:00 -7°C° 0 mm 2 mps 705 mmHg 49%
    13:00 -6°C° 0 mm 2 mps 705 mmHg 46%
    14:00 -6°C° 0 mm 1 mps 704 mmHg 52%
    15:00 -7°C° 0 mm 1 mps 704 mmHg 57%
    16:00 -9°C° 0 mm 1 mps 704 mmHg 63%
    17:00 -9°C° 0 mm 1 mps 704 mmHg 65%
    18:00 -9°C° 0 mm 1 mps 704 mmHg 66%
    19:00 -10°C° 0 mm 1 mps 705 mmHg 68%
    20:00 -10°C° 0 mm 1 mps 705 mmHg 69%
    21:00 -10°C° 0 mm 1 mps 704 mmHg 70%
    22:00 -10°C° 0 mm 1 mps 704 mmHg 71%
    23:00 -11°C° 0 mm 1 mps 704 mmHg 71%
    Show more